Regional Weather Roundup
Issued by NWS Mobile, AL

Home | Current Version | Previous Version | Text Only | Print | Product List | Glossary On
Versions: 1 2 3 4 5 6 7 8 9 10 11 12 13 14 15 16 17 18 19 20 21 22 23 24 25 26 27 28 29 30 31 32 33 34 35 36 37 38 39 40 41 42 43 44 45 46 47 48 49 50
000
ASUS44 KMOB 221612
RWRMOB
REGIONAL WEATHER ROUNDUP
NATIONAL WEATHER SERVICE MOBILE AL
1000 AM CST WED FEB 22 2017

NOTE: "FAIR" INDICATES FEW OR NO CLOUDS BELOW 12,000 FEET WITH NO
      SIGNIFICANT WEATHER AND/OR OBSTRUCTIONS TO VISIBILITY.

  * THESE STATIONS ARE PART OF THE UNIVERSITY OF SOUTH ALABAMA
    MESONET AND ARE NOT UNDER NWS OR FAA QUALITY CONTROL.

ALZ061>064-221700-
COASTAL ALABAMA

CITY           SKY/WX    TMP DP  RH WIND       PRES   REMARKS
MOBILE REG APT CLOUDY    62  56  80 N10       29.84S
BROOKLEY FIELD CLOUDY    65  59  81 N10       29.84S
USA CAMPUS*    NOT AVBL
DOG RIVER*     NOT AVBL


CITY           SKY/WX    TMP DP  RH WIND       PRES   REMARKS
GULF SHORES    CLOUDY    64  60  88 NW9G20    29.80F

$$

ALZ051>060-221700-
INTERIOR SOUTHWEST AND SOUTH CENTRAL ALABAMA

CITY           SKY/WX    TMP DP  RH WIND       PRES   REMARKS
GREENVILLE     CLOUDY    61  57  87 NE10      29.82S
EVERGREEN      CLOUDY    63  58  83 NE8       29.82S
ATMORE*        NOT AVBL
ANDALUSIA/OPP  CLOUDY    64  59  83 NE8       29.80S
ANDALUSIA*     NOT AVBL
FLORALA APT    LGT RAIN  61  58  90 N9        29.81S
FLORALA*       NOT AVBL

$$

FLZ001>006-221700-
WESTERN FLORIDA PANHANDLE

CITY           SKY/WX    TMP DP  RH WIND       PRES   REMARKS
PENSACOLA      CLOUDY    65  59  81 N12       29.78F
NAS PENSACOLA  CLOUDY    65  59  81 N10       29.78S
MILTON         CLOUDY    62  59  90 VRB6      29.79F
WHTNG S FIELD  CLOUDY    65  60  84 N12       29.79S


CITY           SKY/WX    TMP DP  RH WIND       PRES   REMARKS
JAY*           NOT AVBL
DUKE FIELD     LGT RAIN  61  59  93 N12       29.76F
CRESTVIEW      LGT RAIN  62  59  90 VRB6      29.80S
VALPARAISO     CLOUDY    61  60  94 N8        29.76S
DESTIN         LGT RAIN  64  64 100 N14       29.75F

$$

MSZ076-079-221700-
INTERIOR SOUTHEAST MISSISSIPPI

CITY           SKY/WX    TMP DP  RH WIND       PRES   REMARKS
LEAKESVILLE*   NOT AVBL
AGRICOLA*      NOT AVBL

$$

MARINE OBSERVATIONS

STATION/POSITION TIME  TEMP    WIND        PRES    WAVE
                       AIR SEA DIR/SP/G            HT/PER
                 (UTC) (F)     (DEG/KT/KT) (MB)    (FT/S)
PASCAGOULA       1548   63     350/ 12/ 14 1009.7S
PETIT BOIS ISLND 1548   62     340/ 12/ 14 1010.4F
GRAND BAY        1445   59     330/  8     1010.0S
KATRINA CUT      1530           10/  9     1009.8R
CEDAR POINT      1530   61      10/  8     1009.8R
E DAUPHIN ISLAND 1500   61     340/  9/  9 1009.4R
MIDDLE BAY LIGHT 1530   62     340/ 14     1009.1F
USCG MOBILE BAY  1548   63 65  340/  6/ 10 1010.6R
STATE DOCKS      1548   63 62              1010.0R
MEAHER PARK      1530   61     350/  7     1009.5S
WEEKS BAY        1445   63                   N/A
FORT MORGAN      1548   62     350/ 17/ 20   N/A
12 S ORANGE BCH  1550   63 68  350/ 17/ 19 1008.4F   3/ 7
PENSACOLA BAY    1548   64 65  350/  6/ 14 1008.4F
67 S FORT MORGAN 1530   65        CALM     1008.8S

$$

SELECTED LOCATIONS ACROSS THE REGION

CITY           SKY/WX    TMP DP  RH WIND       PRES   REMARKS
NEW ORLEANS    SUNNY     64  57  78 N8        29.86S
GULFPORT       MOSUNNY   64  58  80 N7        29.83F
PASCAGOULA AP  CLOUDY    65  56  72 N9        29.82F
PASCAGOULA*    NOT AVBL
HATTIESBURG    CLOUDY    57  56  96 N5        29.88R
LAUREL         CLOUDY    55  54  94 N7        29.89S
MERIDIAN       CLOUDY    64  60  87 N3        29.87R
JACKSON        CLOUDY    57  56  96 NE7       29.90R FOG
MONTGOMERY     CLOUDY    66  60  81 NE7       29.85F
TROY           CLOUDY    62  61  96 N8        29.84S
ASHFORD*       NOT AVBL
DOTHAN         RAIN      62  62 100 E3        29.83R FOG
PANAMA CITY    CLOUDY    62  60  93 N14       29.72S

$$




USA.gov is the U.S. government's official web portal to all federal, state and local government web resources and services.